[Iaude] MPEC S45: 2019 SP1 [a=1.09,e=0.07,i=15.1,H=24.1]

mpec at marsden.cfa.harvard.edu mpec at marsden.cfa.harvard.edu
Sun Sep 22 09:03:20 EDT 2019


M.P.E.C. 2019-S45                            Issued 2019 September 22, 13:01 UT

     The Minor Planet Electronic Circulars contain information on unusual
         minor planets and routine data on comets.  They are published
    on behalf of Division F of the International Astronomical Union by the
          Minor Planet Center, Smithsonian Astrophysical Observatory,
                          Cambridge, MA 02138, U.S.A.

             Prepared using the Tamkin Foundation Computer Network

                              MPC at CFA.HARVARD.EDU
            URL https://www.minorplanetcenter.net/    ISSN 1523-6714

                                    2019 SP1                                    


Observations:
     K19S01P* C2019 09 20.28530 23 38 13.67 +00 06 20.7                VES045G96
     K19S01P  C2019 09 20.29038 23 38 11.99 +00 06 38.0          20.6 GVES045G96
     K19S01P  C2019 09 20.29546 23 38 10.32 +00 06 55.8          20.4 GVES045G96
     K19S01P  C2019 09 20.30578 23 38 06.90 +00 07 31.6          19.9 GVES045G96
     K19S01P  C2019 09 20.45117 23 37 19.19 +00 16 01.0          21.6 GVES045I52
     K19S01P  C2019 09 20.45242 23 37 18.79 +00 16 04.5          21.2 GVES045I52
     K19S01P  C2019 09 20.45367 23 37 18.43 +00 16 09.7          20.6 GVES045I52
     K19S01P  C2019 09 20.45493 23 37 17.99 +00 16 13.5                VES045I52
     K19S01P |C2019 09 21.12116 23 33 54.87 +00 55 50.1          21.0 VuES045807
     K19S01P |C2019 09 21.12614 23 33 53.23 +00 56 07.6          21.0 VuES045807
     K19S01P |C2019 09 21.13133 23 33 51.54 +00 56 25.7          20.7 VuES045807
     K19S01P  C2019 09 21.23418 23 33 19.94 +01 01 26.4          20.1 GVES045I52
     K19S01P  C2019 09 21.23608 23 33 19.29 +01 01 32.4          21.1 GVES045I52
     K19S01P  C2019 09 21.23797 23 33 18.66 +01 01 39.3          20.9 GVES045I52
     K19S01P  C2019 09 21.23922 23 33 18.22 +01 01 44.4          19.8 GVES045I52
     K19S01P pC2019 09 21.91034823 29 51.67 +01 40 05.2          20.5 GVES045L01
     K19S01P KC2019 09 21.91210023 29 51.04 +01 40 11.5          20.6 GVES045L01
     K19S01P KC2019 09 21.91385623 29 50.51 +01 40 18.2          20.3 GVES045L01
     K19S01P pC2019 09 21.91606723 29 49.82 +01 40 25.7          20.0 GVES045L01
     K19S01P  C2019 09 22.39002 23 27 23.20 +02 07 31.7          21.3 GVES045I52
     K19S01P  C2019 09 22.39127 23 27 22.80 +02 07 36.2          21.1 GVES045I52
     K19S01P  C2019 09 22.39252 23 27 22.38 +02 07 40.7          20.6 GVES045I52
     K19S01P  C2019 09 22.39377 23 27 22.01 +02 07 44.3          20.5 GVES045I52

Observer details:
807 Cerro Tololo Observatory, La Serena.  Observers T. Linder, R. Holmes.  
    0.61-m f/6.5 astrograph + CCD.
G96 Mt. Lemmon Survey.  Observer G. J. Leonard.  Measurers B. M. Africano, E. 
   J. Christensen, G. A. Farneth, D. C. Fuls, A. R. Gibbs, A. D. Grauer, H. 
   Groeller, R. A. Kowalski, S. M. Larson, G. J. Leonard, T. A. Pruyne, D. 
   Rankin, R. L. Seaman, F. C. Shelly.  1.5-m reflector + 10K CCD.
I52 Steward Observatory, Mt. Lemmon Station.  Observer D. C. Fuls.  Measurers 
   B. M. Africano, E. J. Christensen, G. A. Farneth, D. C. Fuls, A. R. Gibbs, 
   A. D. Grauer, H. Groeller, R. A. Kowalski, S. M. Larson, G. J. Leonard, T. 
   A. Pruyne, D. Rankin, R. L. Seaman, F. C. Shelly.  1.0-m reflector + CCD.
L01 Visnjan Observatory, Tican.  Observer K. Korlevic.  1.0-m f/2.9 reflector + 
   CCD.

Orbital elements:
2019 SP1                                                 Earth MOID = 0.0170 AU
Epoch 2019 Apr. 27.0 TT = JDT 2458600.5                 Veres
M  38.58805              (2000.0)            P               Q
n   0.86721247     Peri.  193.81808     -0.98650126     +0.16239039
a   1.0890614      Node   355.36960     -0.11409596     -0.77399173
e   0.0729930      Incl.   15.14121     -0.11746220     -0.61201811
P   1.14           H   24.1           G   0.15           U   7
Residuals in seconds of arc
190920 G96  0.2-  0.5+    190921 807  0.3-  0.2-    190921 L01  0.2-  0.3-
190920 G96  0.2-  0.0     190921 807  0.4-  0.0     190921 L01  0.4+  0.4+
190920 G96  0.0   0.0     190921 807  0.3-  0.1+    190921 L01  0.7+  0.3+
190920 G96  0.1+  0.4-    190921 I52  0.5+  0.3+    190922 I52  0.2-  0.2-
190920 I52  0.1-  0.2+    190921 I52  0.1+  0.2-    190922 I52  0.2-  0.0
190920 I52  0.1-  0.6-    190921 I52  0.1-  0.1+    190922 I52  0.5-  0.3+
190920 I52  0.6+  0.2+    190921 I52  0.5-  0.9+    190922 I52  0.1-  0.3-
190920 I52  0.1+  0.4-    190921 L01  0.8+  0.6-

Ephemeris:
2019 SP1                 a,e,i = 1.09, 0.07, 15                  q = 1.0096
Date    TT    R. A. (2000) Decl.     Delta      r    Elong.  Phase     V
2019 08 23    01 38 47.8 -22 09 28   0.2094  1.1529   128.3    43.5    22.7
...
2019 09 07    00 46 17.2 -12 28 33   0.1691  1.1614   153.2    23.0    21.7
...
2019 09 15    00 06 07.4 -05 05 49   0.1607  1.1647   170.6     8.1    21.0
...
2019 09 21    23 34 31.5 +00 48 19   0.1626  1.1664   175.6     3.8    20.8
2019 09 22    23 29 24.0 +01 45 47   0.1637  1.1667   173.3     5.7    21.0
2019 09 23    23 24 21.3 +02 42 17   0.1649  1.1669   171.1     7.6    21.1
...
2019 09 29    22 56 27.0 +07 53 34   0.1764  1.1679   158.5    18.3    21.6
...
2019 10 07    22 27 42.1 +13 18 14   0.2004  1.1684   144.4    29.9    22.2
...
2019 10 22    22 00 21.8 +19 35 57   0.2610  1.1666   125.5    44.0    23.2

A. U. Tomatic                (C) Copyright 2019 MPC           M.P.E.C. 2019-S45




More information about the Iaude mailing list